Location: Hilton Head Island
(32.2163°N, 80.7526°W)
Time: 18:58:20
(UTC-04:00)

A-11 Canister half - Pass Details

Date: 22 February 2026
Orbit: 1525 x 1683 km, 47.3° (Epoch: 10 March)

Event Time Altitude Azimuth Distance (km) Brightness Sun altitude
Rises 18:36:40 0° 293° (WNW) 4,702 12.7 -5.3°
Reaches altitude 10° 18:40:15 10° 303° (WNW) 3,706 11.8 -6.1°
Maximum altitude 18:48:19 31° 4° (N) 2,408 10.0 -7.8°
Drops below altitude 10° 18:56:21 10° 64° (ENE) 3,699 10.4 -9.4°
Enters shadow 18:56:46 - 66° (ENE) 3,808 10.5 -9.5°
